Theta_e
313 313 313 314 314 315 315 316 316 317 317 317 317 317 317 317 317 317 316 316 316 315 315 315 314 314 313 314 317 317 316 316 312 311 313 311 311 311 311 313 314 312 312 314 313 314 313 312 312 313 317 318 314 316 315 316 323 329 335 331 321 321 323 322 320 318 319 320 316 311 310 313 314 309 303 302 304 305 303 302 302 299 297 297 298 297 298 300
312 312 313 313 314 314 315 315 315 316 316 316 316 317 316 317 316 316 316 315 316 316 315 315 315 314 313 314 315 316 315 316 314 312 312 311 310 311 311 312 313 313 312 312 312 313 313 313 311 313 319 318 313 316 317 313 320 332 333 324 319 326 324 319 321 316 314 315 315 312 310 310 313 310 305 307 310 305 305 306 303 302 301 298 296 296 297 298
310 310 311 312 313 313 314 314 314 314 315 315 315 315 316 316 316 315 315 315 315 316 315 315 315 314 314 314 314 315 315 315 316 314 312 311 310 310 310 311 312 313 311 312 312 311 312 313 310 314 322 319 314 318 321 315 317 324 325 322 324 329 323 316 319 318 314 312 315 313 308 309 310 308 306 309 312 307 308 310 306 306 305 301 297 295 296 297
308 308 309 310 311 311 312 313 313 313 313 314 314 315 315 315 316 315 314 314 314 316 315 315 315 314 314 314 314 315 315 316 318 314 312 311 310 310 310 310 311 312 312 311 312 311 311 311 310 317 321 319 320 321 319 316 316 316 320 324 323 320 318 316 316 318 316 311 314 314 309 310 308 305 307 309 311 309 308 308 308 311 307 302 297 295 295 296
308 308 308 308 309 309 310 310 311 311 311 312 312 313 314 314 315 314 314 313 313 315 315 315 315 315 315 313 314 315 316 320 318 313 312 311 310 311 310 309 310 312 312 311 312 312 310 309 313 323 323 320 326 323 315 313 313 314 316 318 317 313 314 316 315 315 314 309 312 314 311 311 307 306 307 308 310 312 310 307 306 308 306 301 297 295 294 294
308 308 308 308 308 309 309 309 309 310 310 310 310 311 312 313 314 314 313 312 313 315 315 315 315 315 315 314 314 315 317 320 316 313 313 311 311 312 311 309 310 311 311 312 311 312 314 314 317 327 326 322 321 317 314 311 310 313 314 314 316 314 313 315 314 313 312 311 313 314 311 308 308 309 308 306 309 311 308 304 304 303 301 299 296 295 295 295
309 308 308 308 308 309 308 309 309 309 309 309 309 310 310 311 312 313 313 312 312 314 314 314 315 315 314 313 314 317 319 319 315 314 313 311 311 312 311 310 310 311 311 311 311 315 321 320 320 324 324 320 316 315 314 311 310 315 316 315 315 312 313 314 312 312 311 312 313 310 307 309 312 310 307 306 307 308 304 298 297 296 296 296 295 295 295 295
310 310 309 309 309 309 309 309 309 309 309 309 309 309 309 310 310 312 312 312 312 315 315 314 316 314 314 314 315 320 324 319 313 314 313 312 312 311 312 310 310 311 311 310 311 316 320 318 318 318 319 316 314 315 312 310 313 316 315 315 315 312 315 316 312 312 311 310 309 307 309 311 310 306 306 308 306 306 302 296 296 295 295 295 296 296 294 294
311 311 310 309 309 309 310 309 309 309 309 309 309 309 309 309 309 311 311 311 312 315 315 314 316 315 316 316 315 322 324 316 312 313 313 312 312 312 312 310 310 311 311 310 309 312 315 317 316 314 317 316 313 314 313 312 314 315 314 316 317 315 315 313 311 314 312 309 307 308 312 310 306 305 307 309 306 304 301 299 299 297 297 296 295 295 294 294
312 311 311 310 310 310 310 310 310 309 310 309 309 309 309 309 309 309 310 311 313 315 314 314 315 315 317 316 315 320 319 314 313 312 312 312 311 311 311 310 310 310 310 310 310 309 312 315 312 310 315 316 312 312 311 311 312 313 314 315 315 313 312 310 311 314 311 309 308 309 312 310 305 305 309 310 303 300 301 301 298 298 299 296 294 294 293 293
311 311 311 311 310 310 310 310 310 310 310 309 309 309 308 309 308 309 310 311 313 314 313 315 315 315 316 314 318 321 315 313 312 311 311 311 311 311 310 310 309 310 311 310 310 309 310 311 307 307 312 313 312 311 309 309 310 311 312 312 312 312 312 309 310 310 308 308 308 308 309 308 305 306 311 309 298 297 302 302 297 298 298 294 294 294 292 292
310 310 311 311 311 311 310 311 310 310 310 309 309 309 308 308 308 309 309 310 314 314 313 314 314 315 315 315 319 320 315 312 311 310 310 310 311 310 309 310 309 310 310 310 310 309 310 309 308 311 312 311 312 312 309 308 307 310 310 311 315 318 315 310 309 308 307 309 308 307 309 310 308 308 311 305 296 296 301 302 298 296 296 294 293 293 293 292
308 309 309 310 310 311 311 311 310 310 310 310 309 308 308 308 307 309 310 311 314 314 314 314 314 314 315 318 318 314 313 313 311 310 310 310 311 310 309 310 309 310 310 310 309 309 310 309 309 313 310 312 314 309 308 308 307 309 309 311 317 321 320 310 307 307 307 309 308 308 313 316 313 311 310 302 296 298 301 302 298 296 294 293 293 292 293 292
307 308 308 309 309 310 311 311 311 310 310 310 309 308 308 307 308 309 310 312 314 315 314 314 314 314 316 320 316 312 314 312 310 310 309 310 311 310 310 310 310 310 310 310 309 309 309 308 309 311 309 311 310 304 311 316 313 311 309 316 320 317 322 316 308 309 309 309 307 308 314 317 315 315 312 301 296 301 304 302 297 295 294 293 293 292 293 292
307 307 307 307 308 309 310 311 311 310 310 310 309 308 308 307 308 309 310 314 315 315 315 314 314 314 317 319 314 312 314 311 311 311 310 310 310 310 310 310 311 310 311 310 310 309 308 309 311 314 311 308 308 311 321 323 321 319 311 321 325 316 323 322 312 312 310 308 306 308 315 316 312 314 311 298 295 300 303 302 297 295 294 293 293 292 293 293
308 307 307 307 307 307 309 309 310 311 310 310 309 308 307 307 308 309 312 314 315 315 314 315 315 314 318 318 312 312 313 311 312 312 311 310 309 310 310 310 310 310 310 309 310 309 308 312 312 310 311 308 313 324 327 323 328 326 314 319 329 319 319 318 311 310 310 309 308 308 313 315 313 313 307 295 295 299 301 301 298 295 294 293 293 292 293 293
309 308 307 306 306 306 307 308 309 310 310 310 309 308 307 308 309 311 313 314 315 316 315 316 314 313 316 314 313 315 312 311 313 313 312 310 309 310 309 310 309 308 310 309 310 310 308 312 310 309 315 313 316 325 321 319 327 327 317 318 325 319 314 315 313 309 306 308 309 309 309 311 312 312 308 299 296 299 301 301 299 296 295 293 293 293 292 292
309 308 307 307 306 306 306 307 309 309 310 310 308 308 307 308 310 312 314 314 314 314 314 314 312 313 315 312 313 315 311 311 314 313 311 310 309 309 310 309 307 307 313 313 311 313 312 314 316 318 322 314 315 322 317 318 322 321 321 319 320 317 313 314 314 308 305 307 309 309 309 308 309 309 309 306 299 301 303 301 299 298 296 295 293 293 293 292
310 309 308 308 307 306 305 306 308 309 310 309 308 308 308 310 311 312 312 311 314 316 315 315 315 316 315 311 312 312 311 312 313 311 311 311 309 309 309 308 310 311 315 318 315 315 315 317 319 320 321 315 316 319 317 324 325 321 322 322 321 318 314 312 311 306 303 305 308 307 307 307 307 307 307 308 304 302 302 300 298 298 297 296 294 293 293 293
310 310 309 309 309 307 305 306 307 309 310 309 309 308 311 316 318 318 314 311 315 314 314 316 315 317 314 312 313 312 313 312 311 311 310 310 309 310 309 309 315 316 317 323 321 313 311 317 321 318 320 320 320 319 316 320 320 316 317 317 316 313 311 311 308 306 303 305 308 307 306 305 305 305 305 306 306 304 302 299 299 299 298 297 295 294 294 293
311 311 311 311 310 308 306 305 307 309 309 309 309 309 312 316 315 316 316 315 312 305 309 313 308 311 311 310 312 311 313 313 311 311 310 309 309 311 312 311 316 319 320 322 319 311 310 317 321 318 319 318 318 315 311 311 310 310 312 312 312 311 310 309 306 307 306 305 308 309 307 306 305 305 305 306 306 306 305 302 301 301 300 298 296 295 294 294
310 311 311 311 311 309 307 306 308 310 309 309 310 308 307 309 310 308 309 317 315 305 309 310 306 310 309 306 310 310 313 316 312 311 310 308 309 312 316 314 316 320 318 315 315 314 316 319 319 317 314 311 309 307 307 311 309 310 312 311 312 311 311 311 307 307 306 305 309 310 307 306 306 306 306 307 306 307 306 305 304 304 302 299 297 296 295 294
311 310 310 311 311 309 307 307 309 310 310 310 311 308 306 308 310 307 308 316 319 313 314 316 314 318 315 309 310 310 313 315 314 314 310 308 311 314 316 315 317 320 316 315 319 318 321 323 316 311 310 310 309 305 306 310 310 312 313 313 315 312 312 315 311 308 306 306 307 308 306 306 307 306 307 308 307 307 307 306 305 304 304 302 299 297 296 295
311 310 309 310 310 309 307 307 309 310 311 311 310 308 308 310 310 310 312 315 317 317 316 313 313 320 321 311 308 312 315 314 315 314 309 309 313 312 314 317 319 319 315 317 320 318 321 319 307 303 307 314 314 306 306 309 311 316 314 312 315 314 313 315 312 309 309 308 305 306 310 310 310 310 309 309 307 307 306 306 306 303 302 302 301 299 297 296
310 309 310 310 310 309 307 307 309 309 311 312 309 307 308 310 309 309 313 314 315 317 312 308 311 317 315 309 309 313 314 315 316 311 305 308 313 311 312 314 315 317 317 318 318 318 319 311 304 307 307 312 316 311 311 312 314 320 318 313 312 314 313 311 310 310 315 317 307 307 314 313 313 314 313 313 312 313 309 308 310 305 302 301 301 300 298 296
310 309 309 310 310 309 307 308 310 309 310 311 309 307 307 310 311 308 311 313 314 317 313 309 313 315 311 310 312 312 315 316 309 305 304 306 310 311 313 312 311 316 318 317 317 319 316 305 305 313 311 311 313 314 315 312 313 318 316 313 310 309 309 308 309 311 318 320 308 308 316 315 312 314 317 319 319 318 314 311 311 308 305 304 301 300 298 297
310 309 309 310 309 309 309 311 311 310 311 312 311 308 307 309 309 307 308 310 312 317 316 312 312 312 312 310 309 312 318 316 305 303 305 306 306 308 313 315 311 312 312 313 317 317 313 307 307 311 312 312 312 314 315 311 316 319 312 311 312 309 311 311 309 310 313 313 308 309 312 313 313 313 316 318 316 315 313 312 311 308 307 305 302 300 298 297
311 310 311 311 309 310 310 310 310 310 311 311 309 307 306 307 308 308 308 307 311 317 317 315 311 310 311 307 307 312 313 311 311 307 302 303 306 308 313 317 317 315 310 313 319 315 310 312 313 312 312 313 314 317 313 310 316 317 307 308 310 310 313 312 309 309 310 308 312 311 307 310 314 312 311 309 310 314 315 315 314 314 313 307 304 302 298 297
311 310 311 311 310 310 310 311 310 310 310 308 307 307 307 306 306 310 309 306 313 319 315 313 311 310 311 309 310 313 310 309 312 308 303 303 305 307 310 314 317 314 308 312 320 316 310 310 311 313 315 315 315 311 306 309 313 309 304 306 309 309 310 309 309 310 310 311 315 313 307 311 315 313 311 307 309 315 315 314 313 314 315 308 305 304 301 298
312 311 310 310 310 310 311 311 310 311 310 308 308 307 307 308 308 308 308 307 312 316 312 312 312 313 314 314 315 313 311 312 309 306 306 306 306 307 307 307 312 315 313 314 317 314 307 303 305 311 313 312 311 304 301 307 308 303 306 311 312 312 308 309 312 311 313 316 317 313 308 310 314 315 313 310 312 317 315 314 312 312 315 312 307 306 304 300
313 311 310 309 310 311 311 311 311 310 309 307 308 306 308 315 316 310 308 307 308 312 314 315 313 314 317 319 321 314 312 315 310 307 309 307 308 310 308 308 312 319 320 317 317 314 308 306 309 311 309 307 309 307 303 303 303 305 313 316 316 317 313 315 316 313 316 319 316 311 306 307 312 314 311 310 312 314 313 314 316 317 320 320 314 309 306 300
314 312 310 310 310 310 311 312 311 311 309 307 306 307 311 316 314 310 308 306 308 313 318 320 314 315 317 317 320 316 314 317 311 308 311 311 311 311 312 314 316 318 321 320 319 318 314 312 311 308 305 307 314 314 306 303 304 307 315 320 320 320 320 322 321 316 319 319 311 306 305 307 310 310 309 310 311 311 309 310 317 321 320 320 318 312 306 299
315 313 311 310 310 310 310 311 310 311 311 307 306 311 315 312 308 309 309 307 309 312 317 321 317 316 317 317 320 316 314 318 312 307 311 312 311 311 312 316 317 315 318 318 316 319 320 314 308 308 308 309 314 315 313 311 307 306 314 320 320 321 323 324 320 315 315 317 309 303 307 310 309 310 310 309 310 311 308 306 311 316 316 316 313 308 304 298
315 314 312 311 311 311 310 310 310 312 310 306 307 313 314 310 308 310 311 308 310 313 317 319 316 315 316 319 323 318 316 318 314 309 310 310 311 314 315 313 313 315 318 316 314 319 320 316 313 313 313 310 309 312 317 316 308 307 313 316 317 324 327 322 322 318 315 319 312 304 309 314 312 312 312 309 308 309 308 307 306 308 308 306 304 302 300 297
316 315 313 312 312 311 310 309 310 312 309 305 308 313 311 309 311 313 313 311 311 315 317 315 315 316 317 318 320 319 317 317 314 311 312 312 313 317 318 313 310 315 320 317 317 317 315 318 317 309 308 307 308 312 314 313 309 309 312 313 315 321 319 316 319 317 315 319 315 308 311 314 310 311 312 311 309 308 308 307 306 306 304 301 301 301 298 296
316 315 314 313 312 311 310 309 310 312 308 305 310 314 308 308 315 316 313 311 313 318 316 314 317 318 318 320 320 317 314 313 314 314 314 313 314 316 317 316 310 310 314 315 319 318 315 319 313 304 305 304 303 307 309 311 311 309 310 313 313 312 314 317 316 311 310 315 315 313 313 311 308 310 310 310 309 308 307 306 305 306 302 299 301 300 297 295
316 315 313 313 312 311 310 309 311 312 307 306 311 314 309 309 314 314 312 311 313 318 317 313 314 317 321 321 320 318 314 313 313 315 317 315 314 315 315 317 312 309 311 314 319 320 318 319 311 306 310 304 296 302 306 305 307 311 315 313 308 308 312 318 319 316 315 316 316 316 313 309 310 310 308 307 307 307 307 305 305 304 300 299 301 299 297 294
316 314 313 313 312 311 310 310 311 310 307 306 310 314 312 309 308 308 312 312 311 315 315 311 310 315 320 319 318 318 315 315 315 315 318 317 314 315 314 316 314 309 310 311 317 321 317 316 314 306 308 303 296 303 309 303 301 308 312 307 308 314 315 315 316 317 317 316 318 319 312 309 310 309 308 308 308 309 307 306 304 303 301 300 299 298 296 294
315 314 314 313 312 312 311 310 310 309 308 308 309 312 313 311 309 312 316 315 313 314 313 311 309 310 316 317 319 318 313 314 316 314 316 316 315 316 313 315 316 311 309 310 314 318 315 315 316 306 302 303 301 305 313 308 301 302 304 302 306 313 316 315 313 315 317 314 314 315 311 310 311 312 312 310 309 309 309 309 308 306 304 300 299 299 297 294
314 315 315 313 312 312 311 310 310 310 312 311 308 309 311 311 313 317 316 311 312 312 310 313 312 308 313 316 317 319 315 313 315 313 315 316 315 315 312 314 318 314 309 309 312 315 314 315 317 308 301 305 307 307 311 310 305 303 305 305 306 307 311 313 310 312 317 315 314 314 311 310 312 314 314 311 310 309 308 311 311 309 306 300 298 299 297 295
314 316 315 312 312 312 310 311 312 312 314 313 311 310 310 310 313 316 312 308 310 311 309 315 316 309 311 314 314 316 315 315 315 313 315 315 314 314 312 313 318 315 309 309 311 314 315 316 316 313 308 308 310 307 305 308 308 305 306 307 306 306 310 313 311 311 313 314 316 316 311 309 311 313 314 314 314 312 309 310 311 312 310 304 299 297 296 295
314 316 314 311 311 311 311 312 313 313 314 315 314 312 311 311 313 314 311 308 309 309 309 313 314 311 310 311 313 315 316 319 317 313 314 315 312 311 313 313 313 312 312 313 312 313 318 319 315 315 315 311 307 302 300 304 307 306 307 307 307 307 309 312 312 311 312 311 311 312 312 310 311 317 319 318 319 318 313 310 312 314 313 309 303 296 294 293
316 315 311 310 311 311 311 312 312 312 314 314 314 314 313 314 314 313 312 310 309 309 310 310 310 310 309 311 314 314 314 317 318 314 315 317 314 311 314 315 311 311 313 314 313 313 316 317 313 314 317 313 304 299 299 301 304 307 308 307 307 306 307 311 311 311 313 312 311 312 312 309 310 318 321 319 321 319 311 307 310 313 311 307 303 297 293 292
316 313 308 308 310 311 312 313 313 313 313 313 313 314 313 314 315 314 312 311 310 311 310 308 309 309 309 311 312 312 311 311 314 314 313 317 316 312 314 315 311 311 313 313 314 313 313 316 315 314 317 317 310 305 304 303 304 308 309 307 306 306 306 309 309 308 311 310 310 312 312 309 309 313 314 313 313 313 307 302 303 308 309 306 301 296 292 290
316 313 308 308 309 311 313 314 313 313 312 312 313 313 313 314 315 314 313 311 311 312 311 310 311 310 310 311 310 310 310 310 310 311 312 314 313 310 312 313 310 310 312 312 312 312 315 317 315 313 315 316 314 311 312 310 305 305 308 307 306 306 306 308 308 309 309 309 308 309 309 309 309 310 309 307 307 308 306 302 300 300 301 300 299 296 292 289
317 315 311 308 308 310 312 312 312 313 312 312 313 313 313 314 313 312 313 313 311 311 311 312 312 310 309 310 309 309 310 309 309 310 313 315 314 309 308 308 309 312 315 315 312 313 318 317 312 313 315 313 312 310 313 314 309 307 309 307 306 306 306 307 309 310 310 309 309 309 308 309 309 308 308 307 307 308 307 306 304 302 299 297 296 295 293 291
316 316 312 309 309 310 310 311 311 312 312 312 313 313 313 313 312 312 312 313 312 311 311 311 310 310 310 310 309 309 309 309 310 309 310 312 313 310 306 304 306 309 311 313 313 313 317 315 312 313 313 311 312 310 310 312 310 309 310 308 306 305 305 307 309 308 310 311 311 309 308 309 309 308 308 308 308 308 307 307 307 306 305 302 298 295 293 291
317 318 315 313 313 312 310 310 310 310 312 312 312 313 313 313 312 311 312 312 311 311 312 313 312 311 311 310 310 310 309 309 310 310 309 310 310 309 307 306 307 307 307 308 310 310 311 313 312 313 313 311 310 309 309 309 307 308 310 309 308 306 305 307 307 307 308 310 310 309 309 309 309 308 308 308 307 307 308 307 306 307 308 307 303 298 295 293
317 318 316 314 315 314 312 310 310 310 311 312 311 312 313 313 313 312 312 312 311 310 312 313 313 312 311 311 310 310 310 310 311 311 310 310 310 309 309 309 308 306 306 308 309 309 309 311 312 311 311 311 310 309 309 308 307 307 307 308 308 306 305 305 306 306 307 308 308 308 309 308 308 308 308 307 307 308 308 308 307 307 307 308 306 301 298 295
317 317 315 314 314 314 313 311 311 310 310 311 312 312 311 312 313 312 312 313 312 311 311 312 313 312 312 311 311 310 310 310 311 312 311 310 311 311 310 310 310 306 305 307 310 309 308 310 311 310 310 311 310 309 309 308 307 307 307 307 307 305 305 305 304 305 306 307 306 306 307 307 307 307 307 307 307 307 307 307 307 306 306 306 306 304 301 297
316 316 315 314 314 313 313 313 311 311 311 311 311 312 311 311 312 312 312 312 312 313 312 311 312 312 311 310 311 311 311 311 311 311 311 310 311 312 311 312 313 310 307 307 309 308 308 309 310 310 311 311 310 310 310 309 308 307 307 308 307 307 306 305 305 305 305 306 306 306 307 307 306 306 307 307 308 308 307 307 306 305 306 305 305 305 304 300
314 315 314 316 316 314 313 313 312 311 311 311 311 311 312 311 311 312 312 312 311 311 311 311 311 312 311 310 310 310 310 310 310 310 310 310 310 310 312 314 314 312 310 309 308 309 309 309 310 310 310 311 311 312 312 311 310 309 309 308 308 308 308 307 307 307 306 306 306 307 307 307 306 307 307 307 308 308 308 307 306 305 306 305 305 306 305 303
Wind_Speed
12 13 14 14 15 16 17 18 19 20 21 22 22 23 24 24 24 23 23 24 19 11 9 6 5 7 6 5 4 3 7 6 3 2 4 2 1 1 2 2 2 4 4 3 2 4 4 1 2 5 6 3 4 2 2 2 2 3 3 3 1 3 3 5 7 6 4 2 3 4 5 6 3 3 2 1 1 2 1 3 3 4 4 4 3 0 13 27
12 13 13 14 14 15 16 17 17 18 19 20 21 21 22 23 24 24 23 24 21 14 10 8 5 6 7 7 8 5 9 7 3 2 2 2 0 2 3 3 3 4 4 3 3 3 3 1 2 6 4 3 2 2 2 2 3 3 3 2 2 5 4 5 6 6 3 0 3 4 3 4 5 4 4 3 2 1 3 5 2 5 7 4 3 8 18 24
12 13 13 14 14 15 15 16 17 18 19 20 20 21 21 22 23 24 23 23 22 16 11 10 6 5 6 8 8 6 8 7 3 4 3 2 1 2 3 5 4 3 4 4 4 4 4 2 5 6 4 3 1 2 3 3 1 1 3 2 4 5 4 4 6 6 5 3 4 4 2 2 4 5 4 3 2 2 7 7 4 8 12 7 6 11 17 21
13 13 14 15 15 16 16 17 18 18 19 19 20 21 20 21 22 23 24 23 22 16 12 11 7 4 6 9 8 6 5 5 2 3 3 1 1 2 3 5 5 3 3 4 4 5 5 5 5 5 4 3 3 3 3 3 1 1 3 3 4 2 2 5 7 6 5 4 5 4 3 2 4 4 3 4 3 5 8 10 11 14 14 9 7 11 17 19
13 14 14 15 16 16 17 17 18 18 19 19 20 21 20 21 21 22 23 23 22 17 11 12 9 4 5 7 8 5 4 4 3 4 3 2 1 3 3 4 5 2 2 4 4 4 4 5 6 5 4 2 3 3 1 3 1 1 1 3 4 3 1 4 5 4 3 3 3 5 4 3 3 3 5 8 8 7 5 8 12 12 8 10 11 14 16 16
13 13 14 15 16 17 17 18 18 19 19 19 20 21 21 21 21 22 23 23 22 16 11 11 10 5 2 5 6 3 2 0 3 3 3 3 1 3 3 4 5 2 2 3 3 5 4 5 6 4 3 3 1 2 2 3 2 0 2 3 3 4 3 2 2 3 4 5 4 4 3 2 3 4 4 9 14 7 2 3 6 7 7 14 15 14 12 12
13 13 13 14 15 16 17 18 18 19 19 20 20 20 21 21 21 22 23 24 21 15 11 9 8 5 0 4 4 1 2 4 3 3 4 3 2 3 3 4 4 3 2 2 3 4 4 7 5 3 4 3 2 3 2 2 3 3 1 3 2 3 5 2 2 2 4 4 4 2 1 3 5 4 1 8 17 8 2 2 3 4 10 16 13 11 12 14
12 13 13 14 14 16 16 17 18 18 19 20 20 20 21 21 21 22 22 24 21 14 10 8 6 3 2 5 3 2 2 4 3 4 4 3 3 3 2 2 3 2 3 5 4 4 4 5 3 3 3 2 4 3 2 0 3 3 2 2 1 2 6 4 1 2 2 2 0 2 2 4 5 2 2 12 15 8 4 2 4 5 10 12 11 10 11 12
13 13 14 14 15 16 16 17 18 19 19 20 21 21 22 22 21 22 22 23 20 12 9 7 5 1 4 4 4 1 4 4 3 3 3 3 3 2 2 1 2 2 4 7 5 4 2 1 3 4 3 2 4 2 0 1 1 2 4 3 1 3 5 4 3 1 1 2 2 2 6 5 2 1 7 14 10 5 4 4 5 7 8 9 9 10 10 9
15 14 14 15 15 16 16 17 18 19 20 20 21 21 22 23 22 22 22 23 18 10 8 6 3 3 5 2 5 0 5 3 2 3 2 2 2 1 1 1 2 2 4 5 5 5 3 5 4 4 5 3 3 1 1 1 1 3 4 4 4 3 4 2 3 3 2 2 5 5 8 5 3 1 6 7 1 4 6 4 4 7 8 9 8 9 11 11
17 16 15 15 16 16 17 17 19 20 20 21 22 22 22 23 23 23 22 23 15 8 8 5 2 4 5 2 5 4 4 3 2 2 1 2 2 2 1 2 2 3 5 6 6 6 5 8 9 5 1 1 3 1 2 2 2 1 2 2 4 4 5 2 3 4 1 2 6 7 5 3 3 2 10 4 2 4 6 5 5 7 7 7 7 7 8 11
18 18 18 17 17 17 17 18 19 20 21 21 22 22 22 23 23 22 23 22 12 7 8 5 2 5 3 2 3 7 5 4 3 1 1 2 4 3 3 3 3 3 4 6 5 5 7 8 9 5 1 2 2 1 1 2 3 1 2 2 6 7 4 4 1 2 2 2 6 6 4 4 4 10 12 3 3 3 5 6 5 7 6 5 7 5 5 10
20 20 20 20 19 18 18 18 19 20 21 21 22 22 22 23 23 22 23 19 9 6 7 5 2 4 3 1 4 7 7 5 3 2 2 3 5 4 5 4 4 5 4 7 8 7 7 6 7 6 2 4 1 1 3 3 3 0 2 1 4 7 4 3 1 1 2 2 5 3 5 6 9 16 11 3 6 5 5 7 5 6 6 5 6 5 5 9
21 21 22 22 21 20 19 19 20 20 21 22 22 22 22 22 22 23 22 14 6 5 7 4 2 3 3 3 4 5 7 6 4 3 2 3 5 6 7 6 6 7 7 9 10 9 7 6 9 7 3 3 1 1 3 5 3 0 1 1 2 2 4 5 1 2 2 2 3 3 4 9 10 12 8 4 7 7 7 8 5 6 6 6 6 6 6 9
22 22 22 23 23 22 21 20 20 20 21 22 22 22 22 21 21 23 19 9 4 5 5 2 3 3 1 4 3 4 6 5 4 4 2 3 4 5 6 7 8 10 9 9 11 9 8 7 8 5 1 1 2 2 3 4 3 3 1 3 3 1 4 8 3 4 3 1 2 3 3 10 12 9 4 4 5 6 8 7 6 8 8 8 7 7 7 8
23 23 24 24 23 23 22 21 20 20 21 21 22 22 20 20 21 20 12 5 4 4 1 1 5 4 1 3 1 2 4 4 4 5 4 2 3 5 8 8 8 9 9 9 10 8 7 6 4 2 1 1 3 4 3 4 4 3 1 3 4 2 3 6 3 3 3 0 1 3 3 7 10 6 1 3 5 6 7 8 8 9 9 9 7 8 8 7
22 23 24 24 24 24 22 21 21 20 21 21 22 21 20 19 18 13 6 2 1 2 2 3 5 3 1 1 2 1 1 3 4 4 4 3 3 6 8 6 5 7 8 7 6 4 4 4 1 0 2 2 2 4 3 3 4 4 2 2 4 4 3 4 4 2 1 2 3 4 5 11 14 10 4 4 6 6 8 11 10 9 9 9 9 9 9 9
21 23 23 24 25 24 23 21 20 20 21 21 20 21 19 15 11 5 1 1 1 2 2 2 4 2 3 2 2 3 1 3 4 5 5 4 4 5 5 4 4 5 6 4 2 1 2 3 2 1 3 2 2 5 1 5 4 4 3 3 4 3 4 5 5 2 2 2 5 3 6 15 19 18 12 6 7 9 12 11 9 9 11 11 10 10 10 10
20 21 22 23 24 24 23 21 20 19 20 21 19 18 15 10 5 1 1 2 2 1 1 2 2 2 3 3 2 2 3 4 4 5 6 5 5 5 5 5 5 4 3 1 1 2 1 2 3 1 2 3 4 6 8 8 7 6 5 4 5 5 5 6 5 4 1 1 7 8 10 15 17 19 18 8 7 9 13 9 7 10 12 10 9 9 11 12
18 19 20 22 23 24 22 19 19 16 17 19 18 14 7 3 4 3 2 1 4 4 3 5 4 2 4 3 1 4 4 4 4 5 7 8 7 5 3 4 5 4 2 3 1 1 2 1 4 7 7 7 9 8 6 4 6 5 4 4 5 5 7 6 3 3 1 2 8 10 9 13 16 18 20 10 5 9 14 9 10 13 12 9 9 11 12 14
17 18 19 21 23 24 21 18 16 13 13 14 14 9 1 3 1 4 4 5 6 5 5 6 4 6 8 4 3 5 3 2 3 5 9 8 6 4 1 2 3 0 2 3 2 1 3 3 9 10 9 7 6 6 6 5 5 4 4 4 5 5 7 7 2 4 2 2 6 7 7 14 16 17 20 13 7 13 16 10 13 18 14 9 10 13 13 12
17 17 18 20 22 24 21 16 12 11 10 10 8 3 2 4 3 2 1 4 8 4 5 4 1 6 9 6 6 5 3 2 4 4 9 7 4 4 2 3 5 4 2 2 2 1 1 6 12 7 6 5 5 5 6 6 5 3 3 2 4 4 5 6 3 4 2 2 4 6 8 15 18 17 21 19 12 15 14 11 16 18 13 10 12 13 11 10
17 17 17 18 22 24 20 14 11 10 8 7 5 4 3 3 4 4 3 1 7 4 3 3 3 6 5 4 7 8 3 5 4 5 10 9 2 4 4 5 5 3 1 4 6 4 2 8 8 3 8 8 6 4 6 5 3 3 3 3 5 3 1 4 4 4 1 2 4 7 10 13 15 16 18 15 8 10 11 11 15 14 11 12 11 10 11 13
15 16 16 16 21 23 18 14 11 8 7 6 5 5 5 5 6 4 1 0 4 5 3 5 4 5 4 1 7 10 3 4 4 4 8 11 4 3 4 5 5 2 4 8 9 7 7 7 3 6 6 7 6 3 5 5 2 3 5 6 6 4 5 6 3 4 3 1 3 6 11 10 7 10 10 5 3 7 7 7 12 11 9 9 7 8 12 13
15 16 15 15 19 21 17 13 8 5 6 5 4 6 7 7 6 4 1 1 3 5 4 4 2 4 5 4 6 8 2 2 4 3 6 9 6 4 2 3 4 5 7 7 8 6 9 5 7 7 3 6 6 4 5 7 3 4 6 10 9 7 7 5 3 5 4 3 3 5 7 9 1 3 7 4 3 7 3 5 12 10 7 7 8 10 11 11
16 16 14 13 17 19 13 6 6 6 5 4 4 6 7 7 6 4 2 2 4 5 2 2 2 4 6 4 2 4 2 3 3 1 4 5 4 4 2 1 0 4 6 7 5 4 3 0 4 6 6 5 5 5 6 8 5 3 5 7 7 5 4 3 1 2 1 3 3 4 1 9 3 4 4 4 4 9 7 8 12 10 6 8 9 10 8 9
14 14 13 11 14 16 9 4 9 8 4 3 4 6 6 6 6 4 2 3 6 4 3 1 1 4 5 1 0 4 3 4 2 2 1 1 1 2 2 4 1 2 4 4 2 3 2 4 4 4 6 5 5 6 7 9 7 4 3 5 6 6 5 5 3 2 3 2 3 0 3 8 8 4 4 3 4 10 12 14 13 9 9 9 9 9 8 9
12 14 13 11 12 12 8 10 12 7 3 2 3 5 5 5 5 2 2 4 6 1 3 1 1 3 2 1 2 4 2 2 2 1 2 1 1 2 1 7 6 4 3 5 4 4 3 5 5 6 5 5 6 5 8 11 5 4 4 6 6 6 5 5 4 3 2 3 4 4 4 5 10 5 2 3 4 9 12 15 14 10 10 8 7 8 7 8
11 12 13 10 10 11 10 11 10 7 5 3 2 3 5 5 2 4 2 5 4 1 1 1 3 1 2 2 0 2 1 2 1 3 3 1 1 3 2 6 6 4 1 3 5 4 2 4 7 8 6 6 5 1 4 8 4 3 6 6 5 4 4 4 3 2 1 2 7 8 7 4 9 4 3 2 4 9 11 12 11 10 9 7 6 6 6 6
13 10 10 9 9 10 9 9 9 9 8 5 3 2 4 3 2 2 4 6 2 0 1 2 3 2 4 4 2 1 1 2 0 2 3 1 2 5 1 3 6 4 1 4 4 4 1 1 2 4 4 5 5 3 1 3 3 6 7 5 5 4 4 3 1 3 1 4 8 8 12 10 8 3 5 4 5 9 10 9 8 8 9 7 6 6 6 6
14 9 7 8 9 8 5 4 5 5 7 7 3 2 2 2 3 4 8 5 1 1 2 1 2 3 6 6 3 2 2 2 0 2 1 1 2 4 1 1 3 3 3 4 5 3 2 1 2 2 3 5 6 5 3 3 4 5 4 3 3 3 3 4 4 3 1 6 5 4 8 10 9 6 4 6 7 8 10 10 9 9 9 7 5 5 5 6
16 12 9 10 9 9 7 6 6 6 7 5 2 2 3 1 2 5 5 1 1 3 4 3 2 3 5 3 1 3 3 2 2 4 4 3 3 3 4 5 5 1 3 5 4 4 2 4 3 1 2 4 6 4 3 3 2 4 3 4 2 4 3 3 3 1 3 7 3 1 3 5 12 11 8 8 10 11 11 10 10 9 9 7 5 5 4 4
17 15 13 13 12 11 11 10 9 8 7 2 2 3 6 3 7 5 4 3 3 3 2 3 1 3 5 3 2 3 3 3 4 4 3 4 3 5 6 5 6 2 3 4 1 3 3 4 2 3 3 4 8 6 3 2 3 6 5 4 3 1 1 3 4 2 5 7 3 3 3 4 9 9 12 17 17 15 12 11 10 8 8 7 5 4 4 4
17 17 17 17 16 14 12 10 8 7 6 1 3 4 4 7 6 5 7 7 2 1 2 3 3 3 4 3 4 4 3 4 5 5 3 3 3 5 6 7 6 3 2 2 1 3 4 7 5 8 3 6 11 9 5 6 5 5 4 5 5 5 4 5 4 4 7 6 3 1 2 4 4 4 9 15 16 14 10 10 9 7 6 4 3 4 4 5
18 19 20 20 19 16 13 12 10 7 3 1 4 3 7 10 3 3 7 6 2 0 1 2 4 4 3 3 3 4 4 5 3 6 4 5 5 5 5 8 9 6 5 3 3 3 4 9 6 3 1 7 9 4 5 8 4 2 3 4 3 5 5 3 3 4 1 4 5 3 4 6 4 3 4 5 7 10 10 8 8 9 7 2 4 7 6 6
21 21 21 22 23 19 15 15 13 8 3 4 4 7 11 9 4 4 6 5 5 5 5 1 3 4 4 2 3 5 2 2 2 4 4 4 5 6 4 5 10 13 10 6 3 3 3 6 2 2 2 3 3 1 2 3 3 3 2 4 4 3 5 3 3 1 4 3 7 2 5 10 6 5 6 6 6 9 9 7 9 11 6 4 6 8 7 8
24 22 19 22 24 18 15 16 13 9 4 3 6 11 8 6 6 6 4 4 4 6 8 4 4 6 5 3 4 5 3 1 2 3 3 3 4 6 6 4 6 16 17 9 3 4 4 5 3 3 1 1 2 1 2 2 3 6 4 5 3 2 4 3 2 3 2 5 6 4 11 15 12 7 4 5 8 11 11 10 12 10 5 6 10 10 9 8
25 17 13 20 26 20 16 18 16 10 4 2 11 14 5 3 4 3 3 4 3 5 7 7 6 6 6 5 4 5 6 4 4 4 4 4 5 5 8 4 5 14 19 11 4 4 4 4 5 2 2 1 3 2 2 3 2 5 4 3 4 3 2 2 2 2 4 4 4 11 17 17 14 9 4 7 12 14 13 11 11 10 8 9 11 11 10 7
20 8 6 16 26 23 21 21 16 8 3 5 13 13 2 1 4 2 5 5 3 4 7 7 6 4 5 6 4 4 7 7 7 6 4 5 5 4 8 6 6 11 15 13 7 3 3 4 4 1 1 0 2 1 5 3 1 2 0 0 2 2 4 3 3 3 3 3 5 12 16 15 11 7 8 13 14 13 12 10 10 11 11 11 10 10 9 8
12 3 2 14 26 28 27 22 11 5 5 8 11 8 1 2 5 6 8 6 3 3 5 6 6 5 4 5 4 4 7 7 7 6 4 5 5 5 7 7 6 5 7 9 7 1 3 3 4 1 3 1 3 6 9 9 7 4 3 3 2 1 2 1 2 2 3 4 4 6 12 17 8 8 10 13 11 12 12 11 10 10 11 11 10 10 9 8
7 3 4 20 33 35 29 15 5 5 6 8 10 8 4 4 4 5 6 5 4 2 3 5 7 8 6 5 4 4 5 4 6 6 5 6 6 6 8 11 9 8 6 3 5 4 3 4 5 3 1 5 8 6 4 5 8 9 8 8 8 6 4 1 5 3 3 4 5 4 9 18 7 7 7 7 8 9 11 11 10 10 11 11 10 11 9 8
5 4 7 27 43 40 25 9 6 6 6 9 9 6 4 4 3 3 4 4 3 3 1 3 7 7 6 5 4 5 6 5 7 7 5 7 9 9 9 10 11 11 9 5 4 4 4 2 4 6 6 6 5 2 1 2 4 5 4 6 7 6 6 6 8 5 2 2 3 3 5 18 9 6 5 5 8 9 10 11 10 9 9 10 10 10 8 8
5 4 8 33 50 40 17 6 8 8 9 10 8 6 4 2 2 3 5 5 4 3 3 4 4 6 6 4 4 5 7 6 7 8 4 5 11 11 7 10 11 10 7 3 1 1 3 2 4 5 5 3 3 3 2 2 3 3 4 4 6 7 9 8 6 3 2 5 3 3 5 18 12 4 6 5 6 7 7 8 9 7 6 8 9 8 8 8
5 2 4 27 46 35 13 7 10 11 12 10 10 11 7 3 4 5 4 6 6 5 5 6 4 5 6 5 5 7 8 6 7 8 7 7 8 5 7 13 12 9 6 4 4 5 4 3 4 2 4 5 4 2 2 3 0 3 5 4 7 10 9 3 0 2 4 9 8 5 10 19 11 3 5 3 4 5 5 5 6 6 6 7 7 7 7 8
4 2 3 13 27 20 8 6 8 10 13 14 13 14 11 6 6 8 8 8 7 4 4 5 4 5 6 4 3 7 8 8 9 6 6 8 5 3 3 10 13 11 5 0 4 7 6 5 6 6 7 10 11 10 5 2 2 3 3 6 10 14 14 8 3 5 11 10 9 8 15 21 15 8 5 3 4 5 6 5 5 6 7 8 7 8 8 8
3 3 2 4 9 9 6 3 3 6 11 14 11 10 14 13 6 4 8 9 9 7 4 2 1 2 4 5 6 10 12 12 8 4 4 6 3 3 2 6 10 7 2 4 5 6 3 4 10 13 15 14 14 15 6 6 5 6 7 10 13 15 17 12 7 11 11 4 6 15 24 22 20 23 22 11 7 8 9 7 7 8 8 9 9 9 8 8
4 4 5 5 3 6 7 6 6 6 6 9 8 6 15 17 9 3 7 9 9 8 4 3 3 4 7 10 11 14 14 10 6 9 12 8 5 3 1 1 5 2 4 1 5 5 3 5 12 17 20 18 18 21 13 6 8 11 10 13 14 14 16 14 16 21 11 5 9 25 25 17 17 27 34 23 12 12 15 13 11 10 10 10 9 8 8 8
5 4 6 9 6 6 9 12 13 13 11 9 9 8 13 15 12 10 8 5 4 7 7 5 10 17 18 17 14 12 10 7 7 12 15 11 8 3 2 1 3 0 1 1 2 1 3 7 13 17 21 22 20 25 22 12 10 10 10 14 16 17 19 20 24 28 18 12 20 24 17 13 18 29 34 26 15 14 15 15 12 10 8 7 7 7 9 9
6 3 3 8 7 8 14 16 16 17 18 13 9 10 14 17 19 16 8 3 3 8 11 11 16 23 25 20 13 8 7 8 11 13 13 12 9 4 2 6 3 1 2 2 1 1 3 6 13 16 18 20 21 26 25 15 11 12 11 12 17 20 21 22 26 30 28 26 25 22 18 17 23 31 28 19 15 12 9 10 12 10 9 8 8 9 9 10
5 2 2 5 7 8 12 13 12 12 15 15 11 12 15 18 21 16 8 8 9 8 11 19 23 21 19 17 13 13 16 18 18 17 14 10 7 5 6 8 4 1 2 4 2 2 3 7 11 11 11 15 21 23 20 14 15 17 13 14 23 23 17 19 26 28 26 24 21 20 20 20 26 28 19 15 18 13 9 14 18 16 14 13 12 11 10 11
12 9 5 3 5 8 9 10 10 10 10 12 13 14 16 20 23 19 12 13 16 12 13 22 27 18 11 12 16 21 25 24 22 23 18 12 9 9 8 8 7 5 3 5 3 2 4 6 6 7 9 13 18 19 14 11 10 11 14 23 30 25 16 19 25 22 17 15 18 18 17 19 23 19 10 11 15 11 13 19 20 18 15 13 14 15 13 12
12 14 10 5 4 8 10 9 10 11 9 11 17 18 18 21 22 19 12 9 16 19 15 18 21 14 8 13 21 26 27 25 24 23 19 12 9 9 8 8 12 10 7 6 4 4 6 6 6 7 9 12 17 14 6 5 4 8 15 23 27 23 21 24 25 21 15 12 13 16 17 21 22 16 13 15 12 9 14 18 17 17 14 11 14 17 15 13
Wind_Direction
10 10 10 10 9 8 8 9 9 9 8 7 8 9 11 13 13 13 9 5 360 356 359 337 265 243 244 236 225 328 349 338 332 186 192 218 180 19 349 358 358 358 19 35 71 156 175 63 77 125 128 72 8 339 17 29 74 55 82 98 166 180 200 187 185 197 173 228 221 207 188 159 203 232 172 170 77 104 231 268 262 282 266 230 274 274 159 164
5 5 5 5 3 3 4 4 4 4 4 4 4 4 6 8 9 9 8 6 359 352 352 350 312 257 240 233 235 282 335 332 307 275 196 187 159 15 6 7 357 357 17 41 63 114 136 31 102 112 86 50 351 346 23 360 63 84 113 91 235 196 207 199 180 191 176 111 183 199 191 173 201 178 154 209 245 163 211 251 265 278 262 227 207 158 157 163
1 0 359 358 357 357 358 359 359 359 360 360 360 1 2 4 5 6 6 5 360 352 345 348 334 281 244 235 240 268 322 340 312 265 222 203 4 360 6 14 359 360 16 21 36 63 104 138 134 116 63 61 5 6 45 6 32 152 113 101 245 212 230 227 189 197 201 148 146 191 165 185 219 157 152 207 230 196 213 230 205 238 240 206 178 167 163 165
359 357 355 354 352 351 352 354 354 354 355 355 356 357 358 360 2 2 3 3 360 353 342 344 337 299 255 237 237 263 326 358 289 215 187 232 325 332 348 10 358 5 22 20 33 50 87 105 107 96 73 73 341 17 65 335 294 146 117 168 229 194 249 229 203 208 199 164 154 160 127 229 224 159 180 163 182 247 230 229 210 222 224 187 172 178 174 172
355 354 353 350 348 347 348 348 349 350 350 351 353 353 354 356 359 359 359 360 358 354 344 339 335 321 269 233 229 260 11 21 263 187 167 230 272 334 339 2 359 10 30 24 39 43 64 78 71 56 59 82 350 28 99 292 78 98 202 207 206 153 246 231 205 208 169 129 122 131 155 214 148 169 205 169 207 239 221 230 221 227 212 168 174 178 177 178
349 349 348 346 345 343 343 344 346 346 346 348 349 350 351 352 355 356 356 356 355 352 346 337 333 335 274 212 215 235 91 222 243 167 191 216 231 329 348 358 2 28 28 31 57 54 47 42 55 61 51 70 38 85 191 286 34 163 273 272 226 174 221 232 170 212 158 129 156 168 183 151 128 248 224 192 224 227 151 228 229 235 186 166 171 170 176 182
343 343 341 340 340 339 339 340 342 342 343 344 346 349 348 349 351 352 353 353 352 348 346 338 332 338 180 169 188 128 91 251 242 174 210 207 233 311 350 350 7 34 44 54 61 85 71 40 60 123 83 80 184 147 167 294 31 100 196 280 250 174 221 245 96 190 170 163 203 183 128 152 194 246 20 221 234 225 196 220 209 204 160 160 165 170 185 186
338 337 335 335 334 335 335 336 338 339 339 340 342 345 345 346 347 349 351 350 349 345 342 338 324 327 145 158 165 30 335 253 214 189 217 217 245 305 321 334 29 56 85 60 62 134 102 54 106 157 84 93 177 147 147 251 36 84 168 234 220 197 242 281 335 207 187 221 250 99 225 230 211 216 294 251 241 225 214 145 135 148 143 161 172 179 186 185
333 330 331 331 329 330 330 331 334 334 335 336 338 341 342 343 344 346 347 348 348 339 340 340 309 247 161 154 112 30 273 218 172 198 219 231 258 308 289 6 67 97 93 61 59 117 110 127 193 193 163 141 155 152 188 194 273 182 168 196 219 272 285 325 300 291 65 234 122 161 256 267 268 307 271 260 248 203 155 111 139 147 155 179 181 183 184 183
327 326 328 326 325 326 326 328 329 330 332 332 334 338 340 340 341 343 344 348 347 335 339 337 292 191 182 158 96 122 254 185 176 219 213 228 238 266 251 92 83 103 97 70 64 72 93 176 176 153 150 123 140 155 316 165 172 168 156 200 213 272 306 1 299 305 2 247 168 198 255 273 332 339 253 269 280 146 131 125 167 164 179 189 185 190 188 190
322 322 322 321 321 321 322 324 323 325 327 329 331 333 337 337 338 340 341 345 344 334 340 337 282 212 205 139 125 208 233 176 197 217 202 216 189 198 165 99 91 109 109 86 80 80 104 156 143 118 149 129 133 57 293 187 113 134 129 253 268 318 294 235 286 289 295 246 180 183 246 268 32 249 238 247 101 155 150 161 186 188 199 192 191 192 188 199
319 319 319 318 318 316 319 320 319 321 322 325 327 329 335 335 335 336 337 343 339 323 336 339 271 216 197 84 183 217 214 178 195 190 198 188 161 152 101 87 87 102 128 108 104 108 116 144 126 95 286 151 137 49 213 153 79 103 97 286 300 354 313 225 255 273 176 205 183 164 269 254 191 228 239 202 137 150 147 182 198 202 209 196 199 196 198 204
318 317 316 316 316 315 317 317 317 318 318 321 323 327 332 332 332 331 333 340 333 308 324 330 266 199 153 298 226 208 205 195 200 178 143 152 145 114 88 89 92 93 114 121 124 117 117 145 116 101 121 106 134 180 112 61 50 104 81 82 310 356 323 247 89 92 150 176 177 155 290 262 215 230 241 157 153 141 158 208 207 208 214 204 207 204 209 206
317 316 315 314 315 315 317 317 316 316 317 319 321 324 329 331 328 326 330 336 326 304 314 316 244 177 142 251 223 193 207 201 198 181 141 157 140 106 94 96 97 97 101 115 122 113 111 125 106 98 95 84 134 144 51 12 25 78 19 46 10 345 287 292 9 136 165 173 155 142 268 271 256 244 237 180 168 162 195 221 209 213 215 210 213 211 215 210
314 314 314 314 314 315 317 317 316 317 317 316 319 324 329 330 324 322 327 328 316 305 307 300 204 160 92 276 231 185 208 199 197 192 157 160 149 122 111 112 104 98 99 107 112 110 112 113 93 81 17 4 66 76 17 349 10 33 330 304 338 200 271 300 283 186 212 307 115 152 233 275 275 264 236 173 173 184 214 225 212 218 217 215 218 212 219 217
312 312 311 313 314 314 315 316 316 317 316 317 320 323 327 325 318 318 322 321 308 289 289 203 186 151 54 279 189 171 208 194 192 192 172 156 159 148 130 120 103 96 102 105 106 107 99 84 68 71 107 46 75 83 31 2 346 2 46 259 276 227 282 309 290 222 227 359 227 211 236 279 277 276 301 162 187 197 226 235 221 221 220 218 219 214 217 217
310 310 310 312 312 312 314 316 316 315 316 319 323 325 327 320 312 314 322 344 320 236 148 151 159 137 298 224 151 250 234 174 177 177 168 139 131 146 136 114 92 97 98 97 105 97 56 54 78 148 45 45 91 91 31 332 303 323 21 251 255 228 260 298 294 278 163 172 231 225 234 257 266 273 259 190 193 203 230 238 228 225 226 221 219 218 217 215
309 308 310 311 311 312 315 316 315 314 315 319 326 326 322 313 307 310 295 151 105 102 106 115 114 99 276 212 194 252 193 165 167 158 163 145 129 148 144 114 113 104 68 52 60 34 10 38 80 354 15 21 77 101 173 245 221 231 234 242 271 257 243 256 266 271 125 187 239 226 240 255 266 274 265 213 184 216 237 241 235 232 233 227 219 219 219 218
309 310 311 311 311 311 314 317 314 313 315 319 327 326 315 308 310 289 171 148 151 131 186 216 149 146 231 238 243 230 169 165 169 172 172 154 137 140 124 100 105 100 70 4 326 19 49 50 71 216 246 208 191 172 201 216 182 189 203 196 238 258 258 245 241 257 173 223 253 237 242 258 266 274 273 247 178 226 247 246 246 242 239 231 218 221 220 222
312 313 312 312 313 312 314 316 313 313 317 322 332 333 323 335 354 327 321 247 202 183 193 215 201 234 267 265 190 170 176 179 188 186 170 164 149 134 103 63 56 62 111 184 238 11 97 153 230 226 219 207 209 202 193 179 146 140 151 186 232 241 266 265 246 291 322 204 259 250 248 263 265 268 274 265 179 240 254 245 250 248 242 231 219 224 220 224
313 311 312 314 314 312 314 315 311 311 315 321 328 332 281 157 321 297 301 291 257 218 229 232 204 255 264 248 195 167 161 226 222 181 166 166 144 148 230 52 88 188 256 184 170 360 85 198 240 232 210 197 198 180 137 120 118 112 159 208 258 233 254 272 276 317 342 169 264 279 277 268 264 266 272 265 217 245 251 232 246 250 244 233 223 228 224 226
313 308 306 311 313 314 316 315 308 305 306 308 308 293 196 190 201 208 167 297 286 244 233 258 224 260 258 239 218 159 122 252 267 226 177 157 120 186 226 80 142 205 275 136 145 8 57 236 248 228 165 120 87 125 124 119 123 113 138 182 261 243 270 294 326 346 358 192 270 296 288 271 267 264 265 263 243 248 250 218 235 249 245 233 226 229 225 224
315 313 308 307 312 316 318 313 305 305 296 283 272 232 199 182 170 165 134 272 292 278 223 216 201 240 255 246 201 159 161 216 243 258 185 156 131 186 156 116 152 175 180 177 175 165 199 251 255 182 138 116 84 102 113 105 120 152 148 177 250 248 280 284 307 330 275 217 278 290 279 268 264 259 260 267 258 255 254 228 236 245 238 236 229 221 219 219
316 317 314 310 313 318 320 312 306 300 278 259 244 219 189 162 160 171 150 75 288 288 246 210 200 213 214 191 172 170 206 208 196 250 180 158 146 156 162 149 146 183 220 190 173 189 229 238 157 115 125 121 118 135 136 144 222 242 198 206 237 235 223 237 282 322 312 317 331 310 292 278 251 248 260 295 319 275 259 240 250 246 233 245 243 222 218 219
321 319 316 315 318 322 321 314 314 302 275 257 219 195 170 165 166 155 70 6 279 295 286 225 216 210 179 108 147 172 187 242 215 220 174 164 152 140 184 163 157 214 209 160 156 212 248 226 138 128 121 114 139 192 187 174 204 290 232 214 221 227 233 251 327 352 355 331 336 9 323 298 233 201 263 299 318 286 257 233 255 252 226 230 240 233 223 222
324 325 321 321 325 328 326 321 333 328 297 262 194 175 165 171 176 156 79 27 271 272 273 207 187 179 167 117 146 158 117 283 265 145 157 176 171 139 152 164 127 211 179 141 155 218 255 156 123 149 159 152 176 234 224 172 151 285 247 202 199 200 208 227 360 11 299 254 304 52 328 282 271 146 245 275 290 283 274 258 259 259 240 218 228 233 223 221
319 330 326 324 330 334 339 326 322 326 307 258 179 181 188 184 188 190 39 346 272 227 152 219 209 152 167 178 170 142 185 272 8 66 114 168 239 84 151 201 153 202 181 131 189 237 148 96 83 126 139 159 194 244 218 158 138 238 232 130 136 151 173 182 142 171 238 273 321 343 178 274 276 214 243 275 270 279 277 271 268 262 252 234 229 231 221 218
307 327 322 317 325 327 323 314 313 317 312 279 180 197 201 187 193 146 71 273 270 144 127 250 108 120 137 43 71 116 221 297 79 285 334 60 255 59 196 222 177 188 193 138 209 257 121 147 171 147 133 178 205 232 195 159 154 235 186 119 124 140 152 151 132 183 261 19 307 254 163 272 273 234 304 338 232 255 262 261 263 262 257 247 236 232 221 216
286 316 316 306 311 312 307 307 297 289 308 312 240 230 193 191 201 72 95 244 265 69 92 114 129 112 53 91 36 70 6 349 107 269 338 58 262 66 184 215 146 157 196 139 223 261 76 194 192 149 150 204 206 239 188 170 189 184 131 100 79 78 85 91 120 151 36 348 261 240 169 228 274 214 142 64 195 235 248 252 256 258 262 254 240 236 222 213
268 298 313 299 297 300 302 302 282 274 288 289 274 224 178 184 102 104 227 242 249 211 92 119 171 159 103 131 256 306 200 280 359 348 4 82 7 35 125 180 100 115 329 351 276 254 357 311 201 151 168 185 142 89 98 140 142 129 112 78 49 45 56 51 60 95 36 266 257 237 181 192 271 247 164 184 197 209 221 240 253 259 266 253 231 230 216 210
258 271 295 288 282 286 294 307 303 298 285 272 256 151 145 54 84 180 230 239 254 244 146 164 197 134 139 160 204 191 171 259 223 131 138 157 42 41 81 172 92 77 347 321 290 286 358 23 236 221 149 129 102 76 40 53 101 112 101 75 31 341 14 19 357 56 256 255 262 252 183 187 243 250 202 227 240 218 206 215 224 232 251 247 218 224 219 209
248 250 270 275 266 265 265 273 303 324 305 272 216 118 89 74 228 209 225 266 257 222 172 177 208 168 171 166 183 181 167 218 199 160 161 160 165 180 198 192 159 91 306 248 267 327 290 219 217 208 163 145 119 88 30 10 74 112 103 88 47 326 356 350 306 140 226 254 251 149 151 216 246 246 229 236 249 236 216 212 209 209 232 239 218 222 223 205
242 238 251 259 253 252 255 263 281 301 309 291 160 65 83 202 239 187 173 219 217 214 146 123 106 141 144 137 223 200 166 213 191 168 172 144 168 228 247 221 169 170 252 210 236 342 290 286 148 160 244 184 159 166 200 229 178 165 149 129 142 141 52 279 269 277 271 271 269 134 143 250 269 255 219 218 227 224 213 214 217 215 228 236 233 228 225 213
244 232 235 245 248 246 244 251 262 278 305 356 122 77 116 226 245 144 183 220 220 6 59 100 91 106 150 189 224 192 181 227 172 151 181 135 158 236 242 227 197 154 120 156 180 176 243 283 199 174 216 177 182 199 175 138 150 178 156 140 158 154 176 234 232 247 274 290 294 210 182 224 252 261 215 214 226 226 217 218 225 243 246 243 268 255 236 224
244 233 234 238 237 233 228 233 242 250 282 105 130 147 203 224 224 147 202 207 189 117 58 74 98 122 224 257 258 226 208 231 152 134 182 175 188 211 196 203 195 161 131 168 223 167 217 266 230 175 277 169 181 208 118 112 133 195 129 125 177 177 175 215 213 192 224 319 292 231 222 226 219 284 264 234 237 228 226 229 234 251 245 212 261 253 238 229
233 230 231 228 225 224 220 222 227 220 182 125 162 206 223 226 185 180 201 168 175 159 118 42 100 145 242 271 257 249 219 233 156 146 209 210 221 218 194 205 189 179 179 176 200 176 201 273 280 51 321 183 171 220 105 119 172 164 147 176 208 183 139 145 266 40 74 285 272 239 255 271 287 286 233 208 223 223 221 226 232 238 220 190 240 243 233 228
220 219 220 217 216 218 214 213 209 197 156 124 204 217 221 223 188 179 178 147 158 137 131 205 200 171 216 233 225 214 171 224 182 171 213 218 239 208 192 245 194 187 198 190 204 212 191 263 261 139 209 292 355 40 61 14 118 132 194 209 174 110 95 110 248 355 30 246 270 290 270 273 282 277 207 184 225 234 229 225 232 236 204 206 238 239 233 227
209 210 222 215 208 207 208 205 192 173 125 144 231 235 219 207 208 164 146 139 129 141 160 211 212 176 193 210 221 184 170 194 177 177 209 211 245 189 163 212 201 194 206 199 224 245 173 237 266 116 123 330 360 69 95 351 70 127 206 206 115 138 154 109 166 226 253 238 275 282 276 272 262 250 219 209 217 223 229 226 229 230 212 218 236 238 234 222
197 197 243 209 200 202 199 191 176 156 144 193 229 241 227 288 270 222 190 172 131 163 191 218 218 194 191 186 179 168 183 195 175 181 209 200 235 204 162 191 206 203 205 188 194 226 151 209 252 14 348 284 35 165 188 210 66 76 256 104 71 156 170 168 166 179 219 220 264 280 282 276 251 194 189 218 213 206 213 216 217 221 217 217 226 233 228 213
179 189 246 176 187 196 184 173 164 161 197 208 224 236 229 312 269 238 221 205 165 181 201 213 208 209 212 189 181 185 195 205 183 186 220 201 225 237 192 188 187 187 192 185 200 210 101 211 228 317 333 229 187 207 199 192 178 161 171 175 196 170 127 210 232 125 145 194 235 267 273 272 256 149 180 210 202 195 198 201 210 216 220 219 220 227 222 210
153 229 209 164 175 178 166 160 184 191 208 223 230 235 236 257 254 254 247 211 212 249 172 181 199 204 203 192 203 189 176 204 195 191 229 215 222 244 208 191 172 142 119 148 222 214 150 204 213 183 237 232 227 222 196 192 179 173 185 188 190 180 132 183 251 221 147 193 206 192 258 270 262 126 172 188 169 192 195 195 208 209 214 220 220 224 218 213
163 226 180 165 171 165 154 173 207 192 224 225 226 236 229 241 249 251 241 195 213 280 279 208 212 208 204 192 194 179 170 203 204 200 234 224 216 226 211 189 166 146 136 151 212 204 132 143 218 222 227 233 252 297 328 243 162 157 208 193 177 176 158 187 232 231 157 216 220 115 263 268 260 116 136 164 164 193 194 192 206 209 211 218 222 225 220 220
195 205 155 166 170 161 151 200 194 197 232 224 233 250 225 231 248 227 215 197 204 217 231 246 201 202 231 201 164 185 192 210 208 197 215 230 227 229 197 161 151 144 144 153 183 141 103 131 209 246 277 302 352 17 351 321 105 144 240 189 168 199 196 203 220 183 168 219 205 97 257 264 271 100 133 183 176 184 194 197 205 211 221 225 227 228 222 224
193 185 129 173 175 165 159 202 192 204 224 219 234 240 231 237 230 222 211 206 210 193 212 239 200 203 234 187 176 212 199 206 226 211 206 226 245 241 169 160 161 167 182 188 179 171 172 176 166 206 290 289 286 290 326 330 245 212 236 177 188 218 213 222 335 118 238 224 180 167 249 258 266 91 120 188 190 190 211 219 212 213 226 231 232 232 224 222
193 129 49 189 189 184 190 206 191 203 214 216 227 230 232 246 233 221 214 215 223 197 202 237 207 200 217 173 205 236 208 212 236 231 215 229 268 349 169 178 178 189 219 277 146 165 175 176 165 184 227 235 244 245 227 180 185 227 230 179 196 209 203 206 215 218 239 223 161 185 246 254 261 272 257 209 197 232 241 231 232 236 234 233 233 230 221 218
207 172 101 192 211 223 239 247 214 211 210 212 222 226 226 235 249 222 205 216 232 216 206 250 165 170 211 197 225 243 230 226 234 253 245 232 267 338 278 202 195 200 358 53 137 156 156 184 189 203 222 227 241 252 229 122 152 216 211 198 204 207 204 205 223 234 229 175 163 226 241 252 270 278 271 244 211 254 264 243 234 238 235 234 235 230 221 219
215 200 174 173 204 233 240 252 240 234 216 197 196 211 220 226 244 241 201 209 220 209 213 258 207 206 217 208 220 237 233 224 219 239 249 246 249 282 2 200 226 284 18 78 181 156 125 207 205 213 229 233 244 257 247 175 205 223 207 207 213 207 202 201 222 233 219 126 226 240 241 251 267 270 267 261 252 264 273 268 258 250 241 234 229 224 220 222
216 207 168 173 183 201 211 220 217 219 219 199 192 212 220 220 224 224 212 203 196 188 193 222 218 219 221 214 216 232 233 223 225 234 245 250 243 249 23 300 242 172 98 264 274 165 177 223 218 220 235 239 243 254 250 228 225 225 203 212 220 210 203 206 223 234 226 215 239 247 248 250 253 257 262 268 270 265 267 269 265 258 248 231 219 215 217 219
225 253 188 182 190 192 201 212 211 211 215 211 206 216 220 221 221 219 202 146 190 202 199 217 224 221 224 222 216 224 221 220 232 233 234 239 232 217 253 253 253 81 152 199 287 217 190 232 231 231 242 245 243 249 248 238 237 237 223 222 231 225 211 211 229 236 233 234 245 256 262 258 255 256 262 276 282 268 261 271 270 260 247 237 231 227 224 218
224 248 201 201 215 207 206 213 207 206 214 214 217 221 223 228 228 225 199 175 205 210 196 219 232 226 222 219 213 223 224 220 230 236 227 218 208 199 224 230 229 43 182 197 216 223 207 229 239 245 254 251 247 250 249 238 237 243 246 247 247 242 225 221 235 240 241 246 254 262 265 261 258 261 270 285 281 275 273 273 272 268 262 261 259 250 234 221
240 245 240 229 228 211 209 213 202 203 211 209 215 221 224 228 228 228 223 205 213 217 194 211 230 232 215 204 209 224 229 224 229 236 228 207 193 201 214 210 194 179 192 206 189 165 204 224 241 252 257 251 250 255 248 230 233 244 247 248 249 246 236 234 240 240 241 251 260 262 260 255 259 267 274 262 261 265 267 266 268 269 268 267 267 264 249 227
254 251 248 250 230 198 204 217 208 207 212 207 212 216 219 226 226 225 234 224 221 227 215 209 223 229 211 208 216 224 230 229 230 236 238 232 219 213 209 195 188 184 185 196 185 169 194 214 227 231 244 252 253 251 224 168 205 237 236 241 246 249 246 245 250 250 235 230 248 256 255 258 267 275 270 257 252 248 255 259 263 267 266 260 259 261 255 238